This is the latest recevied weather packets stored in our database for station/object KI4HRG. If no packets are shown the sender has not sent any weather packets the latest 10 day(s).
| Time | Temp. | Humidity | Pressure | Rain* | Wind** | Luminosity | Snow |
|---|---|---|---|---|---|---|---|
| 1788013550 | 27.78° C | 82% | 1019.6 hPa | 0 mm | - | 461 W/m² | - |
| 1788013245 | 27.78° C | 81% | 1019.6 hPa | 0 mm | - | 448 W/m² | - |
| 1788012945 | 27.78° C | 83% | 1019.7 hPa | 0 mm | - | 452 W/m² | - |
| 1788012644 | 27.78° C | 82% | 1019.6 hPa | 0 mm | - | 425 W/m² | - |
| 1788012339 | 27.22° C | 83% | 1019.6 hPa | 0 mm | - | 374 W/m² | - |
| 1788012035 | 27.22° C | 82% | 1019.5 hPa | 0 mm | - | 372 W/m² | - |
| 1788011732 | 27.78° C | 82% | 1019.4 hPa | 0 mm | - | 354 W/m² | - |
| 1788011422 | 27.22° C | 83% | 1019.4 hPa | 0 mm | - | 330 W/m² | - |
| 1788011121 | 27.22° C | 83% | 1019.4 hPa | 0 mm | - | 280 W/m² | - |
| 1788010810 | 27.22° C | 82% | 1019.4 hPa | 0 mm | - | 248 W/m² | - |
| 1788010509 | 26.67° C | 83% | 1019.3 hPa | 0 mm | - | 262 W/m² | - |
| 1788010204 | 26.67° C | 83% | 1019.3 hPa | 0 mm | - | 262 W/m² | - |
| 1788009898 | 26.67° C | 82% | 1019.1 hPa | 0 mm | - | 248 W/m² | - |
| 1788009596 | 26.67° C | 83% | 1019.3 hPa | 0 mm | - | 230 W/m² | - |
| 1788009291 | 26.11° C | 84% | 1019.3 hPa | 0 mm | - | 219 W/m² | - |
| 1788008986 | 26.11° C | 84% | 1019.1 hPa | 0 mm | - | 205 W/m² | - |
| 1788008682 | 25.56° C | 85% | 1019.1 hPa | 0 mm | - | 184 W/m² | - |
| 1788008380 | 25° C | 87% | 1019.1 hPa | 0 mm | - | 160 W/m² | - |
| 1788008077 | 25° C | 88% | 1019 hPa | 0 mm | - | 154 W/m² | - |
| 1788007776 | 24.44° C | 89% | 1019 hPa | 0 mm | - | 122 W/m² | - |
| 1788007471 | 24.44° C | 90% | 1018.8 hPa | 0 mm | - | 117 W/m² | - |
| 1788007170 | 24.44° C | 90% | 1019 hPa | 0 mm | - | 102 W/m² | - |
| 1788006870 | 23.89° C | 92% | 1019.1 hPa | 0 mm | - | 88 W/m² | - |
| 1788006564 | 23.33° C | 94% | 1019.1 hPa | 0 mm | - | 83 W/m² | - |
| 1788006259 | 22.78° C | 97% | 1019.2 hPa | 0 mm | - | 58 W/m² | - |
* Rain latest hour (hover to see other rain measurements)
** Current wind speed in m/s (hover to see current wind gust speed)